RH
32 34 34 34 33 33 35 36 40 44 46 48 52 50 41 40 43 43 46 48 50 53 56 59 59 57 59 55 54 57 57 58 59 60 65 63 61 62 60 59 59 60 60 57 58 59 61 62 62 63 64 65 64 61 59 57 55 53 52 51 50 49 48 47 46 45 43 42 42 41 40 39 38 36 35 35 35 34 33 33 32 30 29 33 39 43 46 52 57 59 62 61 53 46 43 40 35
30 31 32 32 31 33 34 35 41 47 47 48 50 49 44 41 40 40 45 48 50 54 57 59 61 60 60 58 55 56 56 61 61 59 63 63 62 63 61 59 60 62 61 60 60 61 64 64 64 66 67 66 63 60 59 58 56 55 53 52 51 50 49 48 46 45 43 43 41 39 36 35 34 33 33 33 33 33 33 33 31 30 30 34 39 44 49 53 57 59 61 55 47 39 36 35 32
29 29 29 30 31 32 34 35 41 45 44 44 46 46 46 44 40 36 39 44 50 55 59 61 63 62 62 61 57 56 59 63 62 61 64 64 64 63 62 61 61 63 63 63 62 63 66 66 66 67 66 64 61 60 60 59 58 56 55 54 53 51 49 47 45 45 43 41 38 34 31 29 29 29 30 32 34 34 34 33 31 30 31 35 40 44 50 54 55 57 58 51 42 33 30 31 28
30 28 27 28 29 32 36 37 41 41 39 42 43 43 45 45 42 35 33 38 45 51 59 63 65 62 61 62 59 57 62 64 64 64 65 65 64 63 63 62 63 64 64 66 64 64 67 67 67 66 65 62 60 60 59 58 57 56 55 54 52 49 46 45 44 43 41 37 34 31 28 28 27 28 28 31 33 34 33 31 30 31 33 36 39 43 48 50 53 57 54 45 35 28 27 26 25
30 28 28 28 29 31 35 37 40 38 36 42 41 41 45 44 41 39 33 34 38 44 55 61 64 61 58 61 60 59 63 65 65 65 65 65 63 61 61 61 63 64 65 67 65 65 66 66 66 65 64 62 60 58 57 57 56 56 54 52 49 46 45 44 43 41 37 33 31 29 27 28 29 29 29 31 32 33 31 30 30 33 34 36 38 41 47 50 55 55 45 33 26 24 24 23 24
30 28 28 29 29 30 33 35 37 36 34 39 40 41 44 41 41 42 38 35 34 39 49 55 57 58 59 62 61 61 63 63 64 63 63 63 60 58 59 61 63 65 65 65 63 63 65 65 65 64 62 59 57 56 56 57 56 55 53 51 48 45 44 42 40 36 33 30 28 26 25 26 28 29 30 30 31 31 31 31 33 35 36 37 39 42 49 54 53 45 32 24 22 23 23 22 23
30 29 30 31 31 31 34 35 35 35 35 37 39 40 41 40 42 44 42 37 34 36 42 48 50 55 60 62 61 62 62 62 62 62 62 62 60 59 61 63 64 65 65 62 61 63 64 63 62 59 57 55 55 56 57 57 55 53 51 48 44 42 40 37 35 32 30 28 26 24 23 23 25 28 29 30 31 31 32 33 36 36 36 38 40 43 46 47 42 31 25 22 22 23 23 23 22
30 30 31 33 34 34 35 35 35 35 35 35 38 38 38 40 41 43 44 38 35 37 39 41 44 54 62 61 62 62 60 60 60 62 62 62 62 62 63 65 65 65 64 61 62 63 61 59 57 55 56 56 56 57 57 55 52 49 46 42 38 36 34 33 32 31 30 28 25 23 22 22 23 25 28 30 31 32 33 35 35 36 37 38 40 42 40 36 33 27 24 23 23 25 25 25 24
30 31 32 34 35 35 36 35 33 34 34 35 37 38 37 39 41 40 43 39 37 38 39 36 36 48 58 60 62 61 57 57 58 60 60 61 61 63 63 64 64 63 61 61 61 60 58 56 57 58 58 58 57 55 53 50 45 41 38 35 32 31 29 29 30 30 29 27 24 22 21 21 21 22 26 28 30 32 33 34 36 37 38 39 39 40 37 34 31 28 27 25 25 26 27 28 26
31 32 32 34 35 34 33 32 31 32 34 35 36 37 37 39 39 37 40 40 37 38 39 35 35 41 49 56 60 59 56 54 55 56 58 60 61 63 63 61 62 62 60 59 58 57 56 57 58 58 57 55 51 48 45 42 37 35 33 30 27 26 25 26 27 28 27 26 24 21 20 19 20 20 22 25 28 30 32 34 36 39 40 40 40 39 37 34 32 31 30 29 28 27 28 29 29
33 33 32 34 35 32 30 30 30 31 32 34 35 36 37 38 38 37 38 38 36 39 38 35 39 40 42 49 54 54 53 53 53 53 56 59 59 60 59 58 57 59 59 57 57 57 55 55 55 53 50 47 43 40 38 34 31 29 27 24 22 21 21 21 23 24 24 25 24 21 20 19 19 20 21 23 26 28 31 35 37 40 41 41 40 38 37 36 35 34 33 33 32 31 30 31 31
33 34 33 33 34 31 30 30 29 31 32 34 35 35 37 38 39 39 39 37 37 39 37 36 39 40 41 42 44 48 48 49 49 48 49 51 52 52 51 49 48 49 51 51 52 51 49 47 46 43 40 37 34 32 30 27 26 24 21 19 18 18 18 19 21 23 23 25 25 23 21 20 20 20 22 23 26 28 30 35 38 40 41 41 40 40 40 39 39 39 38 37 37 36 34 33 33
33 34 33 32 32 31 30 29 29 32 33 34 35 34 37 38 38 40 40 41 41 37 35 36 37 40 46 41 36 39 39 39 38 35 36 38 39 40 39 38 36 37 38 39 39 38 36 34 32 32 30 27 27 25 23 22 21 20 19 18 18 17 18 19 21 23 25 27 28 27 26 24 24 24 24 25 26 27 30 34 37 40 41 41 41 41 41 41 41 41 42 41 41 41 40 37 36
31 32 32 31 32 32 30 30 29 31 32 32 33 34 35 37 37 39 40 44 43 37 33 35 36 39 46 45 39 36 34 33 30 28 29 30 32 32 32 31 30 31 31 32 32 31 29 27 25 24 22 22 22 21 20 20 20 20 20 19 19 18 19 20 22 25 27 30 32 33 33 32 31 29 27 26 27 28 29 31 33 35 38 39 39 40 39 38 39 39 41 44 46 47 46 44 41
30 30 31 31 32 31 31 30 29 30 32 32 33 33 34 35 36 38 38 42 42 37 34 34 35 36 39 42 40 36 35 36 33 32 32 33 33 33 31 29 29 30 32 33 33 33 32 29 27 24 22 20 20 20 19 20 20 21 21 21 20 20 21 22 23 26 29 33 35 36 36 36 35 33 32 32 33 33 35 33 31 29 30 31 32 33 34 33 34 35 36 41 46 49 50 49 49
29 29 31 31 32 31 31 30 29 30 31 31 32 32 33 34 36 37 36 38 40 39 35 33 34 35 34 34 34 35 37 39 38 36 36 36 36 36 33 30 30 32 33 35 36 37 35 33 30 28 24 22 22 21 20 20 21 21 22 22 21 22 22 23 26 28 31 33 35 36 36 37 37 37 39 40 38 38 39 36 30 27 26 27 30 33 35 36 34 33 35 36 41 46 49 52 53
28 29 30 30 30 30 32 31 27 27 29 30 31 31 33 34 35 35 35 37 39 40 36 32 33 33 33 32 33 36 38 40 38 37 37 37 38 38 36 32 31 33 34 35 36 38 37 35 32 29 25 23 23 22 22 22 23 25 26 26 25 25 26 27 28 30 32 34 35 37 39 39 39 40 43 44 40 38 38 36 33 31 33 36 40 42 44 43 38 35 36 35 38 42 46 50 51
27 28 28 28 29 30 31 28 25 24 24 28 30 30 32 33 33 34 36 38 39 40 38 34 31 30 31 33 36 38 38 39 38 35 36 36 38 38 37 34 31 33 34 33 35 35 35 34 31 28 25 24 24 25 27 28 29 31 31 29 29 29 30 30 30 32 33 35 36 37 39 40 41 43 45 46 43 40 40 40 40 40 42 44 45 45 44 44 39 35 36 36 37 39 41 44 47
25 27 26 27 29 28 26 24 22 21 21 25 29 30 31 32 32 33 36 40 40 40 41 37 33 31 30 32 38 39 37 38 36 35 35 35 36 36 37 35 30 30 31 32 33 36 36 34 32 30 28 27 27 29 30 30 30 31 31 30 30 29 30 30 32 33 33 33 35 36 37 39 41 44 45 46 45 44 43 44 45 45 46 46 45 44 43 43 40 36 37 37 37 39 40 42 46
23 23 23 26 28 25 22 21 20 19 20 24 29 29 29 30 31 31 35 41 42 40 40 38 35 32 30 31 36 38 37 35 34 34 33 32 32 31 33 33 30 28 29 28 30 34 37 37 35 34 31 28 27 27 28 27 27 28 29 29 29 29 30 31 31 31 30 30 32 34 35 36 39 42 44 44 44 44 45 46 47 47 48 48 47 46 45 45 41 36 37 39 40 43 43 43 46
22 21 23 23 23 23 19 19 20 20 21 24 28 29 29 30 30 31 34 39 42 40 35 32 31 29 29 31 33 35 36 33 31 31 31 29 29 28 28 28 29 28 29 28 27 28 31 34 34 33 31 28 25 25 26 26 26 27 28 28 28 29 29 29 28 29 29 29 30 32 34 35 36 38 40 40 40 41 42 43 44 45 46 47 47 47 45 44 42 38 36 38 40 43 44 44 46
22 21 22 20 21 22 19 19 21 22 23 26 29 29 27 28 30 31 34 35 37 35 31 28 28 27 28 31 32 34 35 34 31 29 28 28 27 27 26 26 27 28 29 28 27 26 26 29 32 32 31 29 26 25 26 27 27 27 27 28 27 27 28 28 28 29 29 29 29 31 34 34 35 36 36 37 37 38 40 41 42 43 44 44 45 46 45 44 43 41 39 37 38 39 42 44 46
22 21 21 20 19 21 20 19 22 22 24 27 28 26 25 28 31 32 32 31 31 31 31 31 30 29 28 29 30 33 34 33 32 29 26 25 24 25 26 26 26 26 27 28 28 27 26 26 27 30 31 30 28 27 27 28 28 28 27 26 26 26 26 26 27 28 29 29 29 30 32 33 34 34 34 35 36 37 38 39 39 40 40 40 41 41 42 41 41 42 41 41 41 41 41 42 44
23 23 22 20 19 20 21 20 20 21 22 25 25 24 25 29 30 32 31 29 29 32 34 35 34 33 31 29 29 30 30 30 30 31 30 27 24 23 24 25 25 26 26 27 27 27 27 26 26 26 28 29 29 27 27 27 28 27 26 25 25 25 25 26 26 27 28 29 29 29 30 32 32 33 34 33 35 35 36 36 36 36 36 35 35 36 36 37 37 38 39 40 41 42 43 43 43
23 23 23 22 20 19 21 20 19 19 21 25 26 25 27 29 30 32 31 28 31 35 37 36 35 35 34 33 31 29 29 29 29 31 33 33 30 27 25 25 26 26 26 26 27 27 27 27 27 27 27 28 28 26 25 25 25 26 26 26 26 27 26 26 26 27 28 28 29 29 29 31 32 33 34 34 34 34 34 34 34 34 33 33 33 33 34 34 34 35 35 36 38 39 41 41 41
23 23 23 22 21 21 21 21 20 20 23 26 28 28 28 29 31 33 31 30 34 37 37 35 34 35 36 36 34 30 28 28 30 30 31 34 36 34 31 29 27 26 26 27 27 27 28 28 28 28 28 29 30 28 26 25 25 26 27 27 28 28 27 26 27 27 28 28 29 29 30 31 32 33 33 34 35 35 34 34 34 34 34 33 33 33 33 34 34 34 34 35 35 36 37 38 38
23 23 23 22 22 22 22 23 23 23 24 26 27 28 28 29 32 34 31 31 35 38 38 35 34 35 35 37 37 34 30 28 29 30 30 33 34 34 35 34 32 29 28 27 27 27 28 29 29 29 30 31 31 31 30 28 28 27 28 28 28 28 27 26 27 28 28 29 30 30 31 32 32 33 34 35 36 37 36 36 36 36 36 35 34 34 34 34 34 35 35 35 35 35 35 35 35
20 22 24 22 22 24 24 25 25 24 26 27 28 29 29 29 32 33 32 32 34 36 38 37 35 34 35 36 38 38 35 33 33 32 31 31 31 31 33 36 36 35 32 29 28 29 29 29 29 30 31 32 32 32 32 32 31 31 30 29 28 28 29 28 29 30 30 31 32 32 33 33 34 35 36 37 38 39 39 38 38 37 38 37 36 36 35 36 36 36 36 36 37 36 36 36 35
19 21 22 22 23 26 26 26 26 26 29 30 30 31 32 32 32 31 32 33 35 38 39 38 35 35 36 37 38 37 37 38 38 34 31 31 31 32 34 36 36 36 35 32 32 32 30 29 30 30 31 32 32 32 31 32 33 34 34 33 32 31 30 30 30 32 33 33 34 34 35 35 36 37 40 41 42 42 42 42 41 40 40 39 38 38 38 38 37 38 38 38 39 38 39 38 37
19 20 21 22 26 29 27 26 27 28 31 32 31 33 34 33 31 31 32 33 36 40 41 38 36 36 37 37 38 37 35 37 38 35 33 32 32 33 34 35 34 34 35 35 32 31 30 30 31 31 31 32 32 33 33 33 33 34 36 37 36 35 33 32 32 33 34 35 34 35 36 36 37 39 42 43 45 46 46 46 45 44 43 42 42 41 41 41 41 41 41 41 41 40 39 40 39
20 20 24 27 29 32 31 30 32 32 33 32 32 35 34 31 32 31 31 32 35 40 40 39 37 35 35 36 36 36 34 34 36 36 36 34 32 32 33 34 35 33 33 34 30 28 28 29 30 32 32 32 32 33 33 33 34 34 35 37 38 38 36 35 35 34 35 36 35 35 36 37 39 40 42 45 46 48 48 48 47 46 46 45 45 45 45 45 45 45 46 46 46 43 42 40 39
24 25 29 34 34 34 34 33 35 36 36 34 33 35 34 32 33 32 32 34 35 38 40 40 38 34 33 33 33 34 33 31 31 32 34 35 33 32 31 31 33 33 33 34 31 29 27 28 28 30 32 33 33 33 34 34 35 35 35 36 37 39 38 37 37 36 37 38 37 37 38 40 40 41 44 46 48 49 49 48 48 47 48 48 48 48 49 49 49 48 49 50 49 48 45 42 40
34 33 34 37 36 35 37 36 37 37 38 38 34 34 35 34 35 34 35 37 37 38 41 41 39 35 32 31 31 32 31 30 27 25 28 31 31 30 29 29 29 32 34 35 34 31 29 28 27 28 29 32 34 34 34 35 36 36 36 36 37 39 39 38 38 38 38 38 39 39 40 42 42 43 46 48 49 50 50 49 47 46 47 48 50 51 53 53 54 53 52 53 52 49 46 44 41
39 38 37 38 38 37 38 39 38 37 38 38 35 33 34 35 35 37 39 40 40 39 40 41 38 35 33 31 32 32 30 29 26 23 23 25 27 27 28 28 27 30 34 36 37 34 32 32 30 29 29 30 32 34 34 35 36 36 37 37 37 38 39 39 39 39 39 38 39 40 42 44 44 45 48 49 50 52 52 50 49 48 47 47 48 50 52 54 56 56 53 54 53 50 47 44 41
34 36 37 38 39 38 40 41 38 37 36 36 35 33 32 31 31 36 39 39 40 40 39 40 38 36 35 33 34 32 29 28 27 25 24 23 23 25 26 28 27 30 36 38 39 38 36 35 34 34 33 32 32 33 34 36 37 37 37 38 38 39 39 40 41 41 40 39 39 40 42 44 46 47 48 50 51 52 52 52 52 52 51 49 47 47 48 50 53 54 51 49 50 49 47 43 41
30 32 34 35 37 36 38 39 37 36 34 34 32 31 30 29 28 32 36 36 37 38 38 38 38 38 36 35 35 34 29 27 28 28 27 24 23 23 25 26 27 30 36 39 39 40 39 39 38 39 39 39 38 36 35 37 38 39 38 39 39 39 40 41 41 41 40 40 40 41 42 43 46 47 48 49 50 51 52 52 53 54 53 51 48 46 44 43 45 46 44 43 45 46 45 43 41
28 29 32 33 34 36 36 37 37 35 33 33 30 27 27 27 27 31 33 33 33 35 38 39 39 37 37 36 36 34 30 27 28 31 29 27 25 23 23 23 24 29 35 38 39 39 39 39 40 41 42 43 43 41 38 36 37 39 39 39 38 39 40 41 41 41 41 41 41 41 42 43 44 46 47 48 48 50 52 52 54 54 54 53 48 43 39 35 34 34 35 35 38 39 40 39 37
28 30 33 33 32 35 36 35 36 32 30 32 29 26 26 26 28 32 33 34 33 33 36 39 39 38 38 38 37 35 32 30 30 31 31 31 30 26 23 21 22 26 32 35 36 37 38 38 39 41 43 43 43 43 40 37 36 37 38 38 38 38 39 40 41 42 42 42 42 43 43 43 44 44 45 46 47 49 51 52 53 54 55 51 43 38 34 31 28 27 27 29 30 31 32 34 34
28 30 32 33 34 34 34 34 34 31 30 31 28 26 27 26 29 33 34 34 35 34 35 36 37 36 36 37 37 36 34 33 33 34 34 34 34 32 26 22 23 26 31 33 34 36 36 36 37 39 42 43 43 43 43 42 39 38 40 40 40 40 39 40 42 44 44 43 44 45 45 45 45 45 44 45 46 47 49 51 52 53 50 43 37 34 33 30 28 25 24 25 26 26 27 29 31
30 31 31 32 34 32 32 32 32 31 30 29 27 25 25 27 30 32 33 33 33 34 34 33 32 32 31 32 34 35 35 35 35 36 37 37 37 35 30 24 24 28 31 33 33 35 35 36 37 39 43 44 44 44 44 44 44 43 43 43 44 44 43 42 43 45 46 46 46 47 46 46 46 46 44 44 45 47 49 50 50 47 41 35 33 34 33 31 29 27 25 25 25 25 26 27 28
31 32 30 30 30 29 29 28 29 31 30 27 25 24 25 27 28 30 32 32 31 31 30 29 28 27 26 26 28 30 33 35 35 36 38 38 37 36 33 27 25 27 30 32 34 34 34 35 35 39 43 45 45 45 45 46 47 48 47 47 46 46 46 45 45 46 47 48 47 47 46 47 48 46 44 44 46 47 47 47 43 37 32 31 33 34 34 33 32 30 28 26 25 25 27 26 26
30 31 30 30 29 28 27 25 25 28 28 26 24 25 29 29 27 28 30 31 30 28 28 28 26 25 23 23 24 25 28 31 33 35 37 39 39 38 35 30 26 28 30 32 34 34 34 34 34 38 42 45 47 47 48 48 49 50 51 50 49 48 48 47 46 47 48 49 49 48 49 49 49 47 47 47 45 43 41 38 34 30 30 31 33 34 35 34 33 32 30 27 26 26 26 26 26
29 31 31 30 29 27 25 22 20 23 24 23 24 27 29 29 28 28 29 28 26 25 26 27 27 25 22 22 24 24 25 27 30 34 36 39 42 41 39 33 28 28 31 32 33 34 35 36 36 38 41 45 48 49 50 51 53 53 52 52 52 51 49 47 47 48 50 52 51 51 51 51 51 50 50 48 40 34 32 31 30 30 31 32 32 33 35 35 35 34 31 28 26 26 27 26 27
29 31 29 28 26 24 22 21 20 22 22 22 26 27 26 28 28 27 28 26 25 24 24 26 26 24 24 24 25 25 26 27 29 32 35 39 43 44 42 37 31 30 32 32 33 34 36 39 39 39 40 43 47 48 50 51 53 54 54 53 53 54 52 50 49 50 52 54 54 53 53 53 53 52 52 46 34 28 29 30 30 31 33 34 32 32 34 35 36 34 32 29 27 27 27 27 28
30 30 28 27 25 23 22 22 23 24 21 23 28 25 26 31 27 24 27 26 25 26 24 24 25 23 24 26 27 27 27 28 31 32 34 37 42 46 45 40 34 32 34 35 36 37 39 41 40 39 39 41 45 47 50 52 53 56 57 55 56 57 57 54 53 53 52 53 54 54 55 55 54 53 51 43 31 28 30 32 31 31 33 35 34 33 35 36 36 35 32 28 27 27 27 28 29
29 28 27 27 27 27 26 24 25 27 24 24 27 23 24 30 27 24 27 27 26 27 25 25 25 23 25 28 29 28 28 30 31 33 35 38 42 46 48 44 39 37 38 39 41 41 41 42 41 40 39 40 43 44 49 54 54 56 58 57 58 61 62 61 57 55 54 54 55 55 56 57 56 54 50 39 31 33 35 36 34 32 33 35 36 35 35 36 36 34 31 28 28 28 29 30 32
26 26 26 26 28 30 33 33 28 28 30 28 27 24 22 28 30 28 27 26 28 28 27 26 26 25 26 28 29 28 29 31 32 33 35 39 45 50 52 51 48 44 42 41 42 42 43 43 44 43 42 43 45 47 53 56 53 53 55 58 60 61 61 63 60 56 54 53 54 56 59 61 58 57 50 37 33 36 37 36 33 32 34 34 35 35 36 36 34 32 30 28 28 30 31 33 35
24 26 26 24 29 30 33 36 29 28 34 33 30 28 25 28 30 28 26 26 27 28 28 29 29 28 27 25 26 26 27 30 32 34 35 37 40 46 50 51 52 48 45 44 43 43 43 44 45 46 46 49 51 54 54 52 48 47 49 53 58 59 59 60 59 54 52 52 53 56 63 64 60 60 53 40 36 37 36 33 31 34 37 36 36 36 36 34 32 30 29 28 29 32 34 37 38
25 28 28 26 32 32 34 40 33 31 35 30 30 30 28 32 31 28 28 27 27 29 30 30 30 30 29 26 24 25 26 28 31 33 35 35 35 38 43 46 51 54 53 48 43 44 47 47 48 48 49 52 55 55 50 46 43 43 46 48 50 54 55 54 54 53 53 55 56 59 66 66 63 65 58 42 36 35 34 33 34 38 38 38 38 37 35 33 31 30 29 29 32 35 38 40 39
27 30 30 29 35 35 40 47 37 33 35 30 30 30 30 35 32 29 32 29 29 31 30 29 30 30 29 27 25 26 27 27 30 33 35 35 35 38 42 46 53 60 61 52 44 45 48 51 53 52 52 53 54 53 48 44 42 43 49 53 52 52 52 51 53 56 58 59 60 61 65 70 73 71 58 41 35 35 36 36 38 40 40 39 39 37 35 32 30 30 32 33 36 38 41 41 39
28 30 30 30 36 34 37 43 35 32 35 33 31 31 31 33 31 30 30 28 27 27 26 25 24 25 25 25 26 26 27 28 29 32 34 35 38 40 43 46 50 54 56 52 48 47 46 50 53 54 54 53 51 51 49 47 46 46 54 61 59 56 53 52 55 58 59 59 62 64 65 71 75 66 50 41 37 36 37 38 39 41 41 40 39 37 34 33 33 35 36 38 40 42 42 41 39
30 32 30 30 34 34 35 39 37 34 36 37 35 33 35 33 30 30 28 26 25 23 22 22 21 21 21 22 24 26 27 29 29 31 33 34 38 41 43 45 48 49 50 49 51 53 53 56 59 59 59 58 56 55 52 53 54 54 56 60 61 59 56 56 58 57 56 58 63 65 62 67 65 52 43 40 38 38 40 40 41 41 40 39 37 35 36 37 39 39 40 41 43 44 43 42 42
34 33 32 33 33 36 37 38 41 39 37 41 37 32 35 32 28 30 28 26 26 24 23 24 23 22 22 22 24 26 27 29 30 31 32 32 33 36 39 42 46 50 50 49 53 60 63 65 65 64 64 65 66 66 63 63 65 64 63 63 63 64 62 61 60 56 55 62 69 67 62 63 55 43 39 38 37 39 40 40 40 40 39 39 39 41 43 45 45 44 45 45 45 46 46 45 45
35 33 34 34 32 36 38 36 45 46 40 43 39 31 34 33 30 32 31 29 29 27 26 25 24 23 22 23 24 25 27 28 31 32 32 32 31 31 35 38 42 47 49 50 55 62 66 67 66 65 66 64 64 67 69 70 72 71 68 64 63 65 66 65 63 59 58 61 64 61 57 53 43 35 37 36 36 37 38 41 42 42 43 45 47 49 50 50 49 48 48 47 47 47 47 47 47
35 34 34 34 32 36 38 38 44 45 43 45 42 36 36 34 33 33 32 32 30 28 27 26 25 24 23 24 24 25 26 26 28 31 31 33 32 32 35 37 40 42 44 46 49 52 56 60 64 68 70 68 63 65 67 69 71 70 67 65 64 64 64 65 64 63 62 60 57 54 53 50 44 42 41 37 38 40 42 45 47 48 50 53 54 56 56 55 53 51 50 48 48 48 48 48 47
37 37 38 39 39 38 39 40 41 42 46 50 47 42 38 37 37 35 32 31 29 27 28 27 26 25 25 25 25 25 26 26 26 27 28 29 31 34 36 37 39 39 39 39 40 44 48 53 58 62 64 63 60 61 61 60 60 60 62 65 66 63 62 64 63 62 63 62 60 60 59 56 52 50 46 43 45 47 48 51 53 55 57 59 61 61 60 58 55 53 51 49 49 49 49 48 48
42 44 44 45 46 44 42 44 43 44 50 56 54 47 41 40 39 35 32 31 29 27 28 28 28 27 26 26 26 26 25 25 25 26 27 27 27 30 34 37 39 39 39 38 38 41 44 46 49 52 53 52 50 50 52 54 53 50 50 54 59 61 61 64 65 62 59 58 62 63 60 55 50 49 50 52 53 53 53 56 59 61 63 65 66 64 62 59 57 55 53 52 51 50 49 49 48
43 47 46 45 48 48 48 49 50 49 51 54 53 46 39 38 36 33 32 31 30 30 30 30 30 29 29 27 26 25 23 23 24 24 26 26 26 28 30 35 38 40 41 41 42 43 43 43 44 46 48 48 48 46 46 50 51 48 47 51 57 60 60 62 61 57 54 56 60 60 55 52 50 50 54 59 61 60 58 60 63 65 66 65 64 64 63 62 59 57 55 53 52 50 49 49 47